Time,TemperatureF,DewpointF,PressureIn,WindDirection,WindDirectionDegrees,WindSpeedMPH,WindSpeedGustMPH,Humidity,HourlyPrecipIn,Conditions,Clouds,dailyrainin,SoftwareType,DateUTC
2013-09-03 06:00:00,75.6,71.1,29.85,North,0,0.0,0.0,86,0.00,,SCT120,0.28,VWS V14.01,2013-09-03 10:00:00,
2013-09-03 06:01:00,75.6,71.1,29.85,North,0,0.0,0.0,86,0.00,,SCT120,0.28,VWS V14.01,2013-09-03 10:01:00,
2013-09-03 06:02:00,75.6,71.1,29.85,North,0,0.0,0.0,86,0.55,,SCT120,0.00,VWS V14.01,2013-09-03 10:02:00,
2013-09-03 06:07:00,75.6,71.1,29.85,North,0,0.0,0.0,86,0.55,,SCT120,0.00,VWS V14.01,2013-09-03 10:07:00,
2013-09-03 06:12:00,75.4,70.9,29.88,North,0,0.0,0.0,86,0.55,,SCT120,0.00,VWS V14.01,2013-09-03 10:12:00,
2013-09-03 06:17:00,75.4,71.2,29.88,North,0,0.0,0.0,87,0.55,,SCT120,0.00,VWS V14.01,2013-09-03 10:17:00,
2013-09-03 06:22:00,75.6,71.4,29.88,North,0,0.0,0.0,87,0.00,,SCT120,0.00,VWS V14.01,2013-09-03 10:22:00,
2013-09-03 06:27:00,75.7,71.6,29.88,North,0,0.0,0.0,87,0.00,,SCT120,0.00,VWS V14.01,2013-09-03 10:27:00,
2013-09-03 06:32:00,75.7,71.6,29.88,North,0,0.0,0.0,87,0.00,,SCT120,0.00,VWS V14.01,2013-09-03 10:32:00,
2013-09-03 06:37:00,75.7,71.6,29.88,North,0,0.0,0.0,87,0.00,,SCT120,0.00,VWS V14.01,2013-09-03 10:37:00,
2013-09-03 06:42:00,75.6,71.4,29.88,North,0,0.0,0.0,87,0.00,,SCT120,0.00,VWS V14.01,2013-09-03 10:42:00,
2013-09-03 06:47:00,75.7,71.6,29.88,North,0,0.0,0.0,87,0.00,,SCT120,0.00,VWS V14.01,2013-09-03 10:47:00,
2013-09-03 06:52:00,75.9,71.8,29.88,North,0,0.0,0.0,87,0.00,,SCT120,0.00,VWS V14.01,2013-09-03 10:52:00,
2013-09-03 06:57:00,75.9,71.8,29.88,North,0,0.0,0.0,87,0.00,,SCT120,0.00,VWS V14.01,2013-09-03 10:57:00,
2013-09-03 07:02:00,75.9,71.8,29.88,North,0,0.0,0.0,87,0.00,,SCT120,0.00,VWS V14.01,2013-09-03 11:02:00,
2013-09-03 07:07:00,76.1,71.9,29.88,North,0,0.0,0.0,87,0.00,,SCT120,0.00,VWS V14.01,2013-09-03 11:07:00,
2013-09-03 07:12:00,76.3,72.1,29.88,North,0,0.0,0.0,87,0.00,,SCT120,0.00,VWS V14.01,2013-09-03 11:12:00,
2013-09-03 07:17:00,76.5,72.3,29.88,North,0,0.0,0.0,87,0.00,,SCT120,0.00,VWS V14.01,2013-09-03 11:17:00,
2013-09-03 07:22:00,77.0,72.8,29.88,North,0,0.0,0.0,87,0.00,,SCT120,0.00,VWS V14.01,2013-09-03 11:22:00,
2013-09-03 07:27:00,77.4,73.2,29.88,North,0,0.0,0.0,87,0.00,,SCT120,0.00,VWS V14.01,2013-09-03 11:27:00,
2013-09-03 07:32:00,77.7,73.6,29.88,North,0,0.0,0.0,87,0.00,,SCT120,0.00,VWS V14.01,2013-09-03 11:32:00,
2013-09-03 07:37:00,77.9,73.7,29.88,North,0,0.0,0.0,87,0.00,,SCT120,0.00,VWS V14.01,2013-09-03 11:37:00,
2013-09-03 07:42:00,78.3,74.1,29.88,North,0,0.0,0.0,87,0.00,,SCT120,0.00,VWS V14.01,2013-09-03 11:42:00,
2013-09-03 07:47:00,78.1,73.2,29.88,North,0,0.0,0.0,85,0.00,,SCT120,0.00,VWS V14.01,2013-09-03 11:47:00,
2013-09-03 07:52:00,78.4,73.2,29.88,North,0,0.0,0.0,84,0.00,,SCT120,0.00,VWS V14.01,2013-09-03 11:52:00,
2013-09-03 07:57:00,78.6,73.0,29.88,North,0,0.0,0.0,83,0.00,,SCT120,0.00,VWS V14.01,2013-09-03 11:57:00,
2013-09-03 08:02:00,79.2,72.8,29.88,North,0,0.0,0.0,81,0.00,,SCT120,0.00,VWS V14.01,2013-09-03 12:02:00,
2013-09-03 08:07:00,79.3,72.3,29.88,North,0,0.0,0.0,79,0.00,,SCT120,0.00,VWS V14.01,2013-09-03 12:07:00,
2013-09-03 08:12:00,79.7,72.2,29.88,North,0,0.0,0.0,78,0.00,,SCT120,0.00,VWS V14.01,2013-09-03 12:12:00,
2013-09-03 08:17:00,80.2,72.8,29.88,North,0,0.0,0.0,78,0.00,,SCT120,0.00,VWS V14.01,2013-09-03 12:17:00,
2013-09-03 08:22:00,80.6,72.7,29.88,North,0,0.0,0.0,77,0.00,,SCT120,0.00,VWS V14.01,2013-09-03 12:22:00,
2013-09-03 08:27:00,80.8,71.3,29.91,North,0,0.0,0.0,73,0.00,,SCT120,0.00,VWS V14.01,2013-09-03 12:27:00,
2013-09-03 08:32:00,81.1,70.8,29.91,North,0,0.0,0.0,71,0.00,,SCT120,0.00,VWS V14.01,2013-09-03 12:32:00,
2013-09-03 08:37:00,81.7,71.4,29.91,North,0,0.0,0.0,71,0.00,,SCT120,0.00,VWS V14.01,2013-09-03 12:37:00,
2013-09-03 08:42:00,82.2,71.5,29.91,North,0,0.0,0.0,70,0.00,,SCT120,0.00,VWS V14.01,2013-09-03 12:42:00,
2013-09-03 08:47:00,82.6,71.0,29.91,North,0,0.0,0.0,68,0.00,,SCT120,0.00,VWS V14.01,2013-09-03 12:47:00,
2013-09-03 08:52:00,82.4,66.7,29.91,North,0,0.0,0.0,59,0.00,,SCT120,0.00,VWS V14.01,2013-09-03 12:52:00,
2013-09-03 08:57:00,82.8,67.5,29.91,North,0,0.0,0.0,60,0.00,,SCT120,0.00,VWS V14.01,2013-09-03 12:57:00,
2013-09-03 09:02:00,82.9,66.2,29.91,North,0,0.0,0.0,57,0.00,,SCT120,0.00,VWS V14.01,2013-09-03 13:02:00,
2013-09-03 09:07:00,83.7,67.8,29.91,North,0,0.0,0.0,59,0.00,,SCT120,0.00,VWS V14.01,2013-09-03 13:07:00,
2013-09-03 09:12:00,84.0,68.7,29.91,North,0,0.0,0.0,60,0.00,,SCT120,0.00,VWS V14.01,2013-09-03 13:12:00,
2013-09-03 09:17:00,83.8,66.5,29.91,North,0,0.0,0.0,56,0.00,,SCT120,0.00,VWS V14.01,2013-09-03 13:17:00,
2013-09-03 09:22:00,84.2,66.8,29.91,North,0,0.0,0.0,56,0.00,,SCT120,0.00,VWS V14.01,2013-09-03 13:22:00,
2013-09-03 09:27:00,84.4,65.9,29.91,North,0,0.0,0.0,54,0.00,,SCT120,0.00,VWS V14.01,2013-09-03 13:27:00,
2013-09-03 09:32:00,84.2,65.8,29.91,North,0,0.0,0.0,54,0.00,,SCT120,0.00,VWS V14.01,2013-09-03 13:32:00,
2013-09-03 09:37:00,83.8,65.4,29.91,North,0,0.0,0.0,54,0.00,,SCT120,0.00,VWS V14.01,2013-09-03 13:37:00,
2013-09-03 09:42:00,84.4,66.5,29.91,North,0,0.0,0.0,55,0.00,,SCT120,0.00,VWS V14.01,2013-09-03 13:42:00,
2013-09-03 09:47:00,84.2,64.7,29.91,North,0,0.0,0.0,52,0.00,,SCT120,0.00,VWS V14.01,2013-09-03 13:47:00,
2013-09-03 09:52:00,84.2,65.2,29.91,North,0,0.0,0.0,53,0.00,,SCT120,0.00,VWS V14.01,2013-09-03 13:52:00,
2013-09-03 09:57:00,84.9,65.3,29.91,North,0,0.0,0.0,52,0.00,,SCT120,0.00,VWS V14.01,2013-09-03 13:57:00,
2013-09-03 10:02:00,85.6,60.6,29.91,North,0,0.0,0.0,43,0.00,,SCT120,0.00,VWS V14.01,2013-09-03 14:02:00,
2013-09-03 10:07:00,86.2,61.1,29.91,North,0,0.0,0.0,43,0.00,,SCT120,0.00,VWS V14.01,2013-09-03 14:07:00,
2013-09-03 10:12:00,86.7,60.2,29.91,North,0,0.0,0.0,41,0.00,,SCT120,0.00,VWS V14.01,2013-09-03 14:12:00,
2013-09-03 10:17:00,87.1,59.2,29.91,North,0,0.0,0.0,39,0.00,,SCT120,0.00,VWS V14.01,2013-09-03 14:17:00,
2013-09-03 10:22:00,87.4,54.0,29.91,North,0,0.0,0.0,32,0.00,,SCT120,0.00,VWS V14.01,2013-09-03 14:22:00,
2013-09-03 10:27:00,87.1,53.7,29.91,North,0,0.0,0.0,32,0.00,,SCT120,0.00,VWS V14.01,2013-09-03 14:27:00,
2013-09-03 10:32:00,87.3,55.5,29.91,North,0,0.0,0.0,34,0.00,,SCT120,0.00,VWS V14.01,2013-09-03 14:32:00,
2013-09-03 10:37:00,87.6,55.8,29.91,North,0,0.0,0.0,34,0.00,,SCT120,0.00,VWS V14.01,2013-09-03 14:37:00,
2013-09-03 10:42:00,87.6,55.0,29.91,North,0,0.0,0.0,33,0.00,,SCT120,0.00,VWS V14.01,2013-09-03 14:42:00,
2013-09-03 10:47:00,87.1,53.7,29.91,North,0,0.0,0.0,32,0.00,,SCT120,0.00,VWS V14.01,2013-09-03 14:47:00,
2013-09-03 10:52:00,87.6,54.2,29.91,North,0,0.0,0.0,32,0.00,,SCT120,0.00,VWS V14.01,2013-09-03 14:52:00,
2013-09-03 10:57:00,87.3,53.0,29.91,North,0,0.0,0.0,31,0.00,,SCT120,0.00,VWS V14.01,2013-09-03 14:57:00,
2013-09-03 11:02:00,87.4,54.8,29.91,North,0,0.0,0.0,33,0.00,,SCT120,0.00,VWS V14.01,2013-09-03 15:02:00,
2013-09-03 11:07:00,87.4,52.2,29.91,North,0,0.0,0.0,30,0.00,,SCT120,0.00,VWS V14.01,2013-09-03 15:07:00,
2013-09-03 11:12:00,87.4,54.0,29.91,North,0,0.0,0.0,32,0.00,,SCT120,0.00,VWS V14.01,2013-09-03 15:12:00,
2013-09-03 11:17:00,87.6,55.8,29.91,North,0,0.0,0.0,34,0.00,,SCT120,0.00,VWS V14.01,2013-09-03 15:17:00,
2013-09-03 11:22:00,87.3,60.7,29.91,North,0,0.0,0.0,41,0.00,,SCT120,0.00,VWS V14.01,2013-09-03 15:22:00,
2013-09-03 11:27:00,86.7,62.2,29.91,North,0,0.0,0.0,44,0.00,,SCT120,0.00,VWS V14.01,2013-09-03 15:27:00,
2013-09-03 11:32:00,86.2,66.5,29.91,North,0,0.0,0.0,52,0.00,,SCT120,0.00,VWS V14.01,2013-09-03 15:32:00,
2013-09-03 11:37:00,86.2,68.7,29.91,North,0,0.0,0.0,56,0.00,,SCT120,0.00,VWS V14.01,2013-09-03 15:37:00,
2013-09-03 11:42:00,85.8,69.3,29.91,North,0,0.0,0.0,58,0.04,,SCT120,0.04,VWS V14.01,2013-09-03 15:42:00,
2013-09-03 11:47:00,85.8,69.8,29.91,North,0,0.0,0.0,59,0.04,,SCT120,0.04,VWS V14.01,2013-09-03 15:47:00,
2013-09-03 11:52:00,86.0,70.5,29.91,North,0,0.0,0.0,60,0.04,,SCT120,0.04,VWS V14.01,2013-09-03 15:52:00,
2013-09-03 11:57:00,86.0,69.5,29.91,North,0,0.0,0.0,58,0.04,,SCT120,0.04,VWS V14.01,2013-09-03 15:57:00,
2013-09-03 12:02:00,86.7,71.2,29.91,North,0,0.0,0.0,60,0.04,,SCT120,0.04,VWS V14.01,2013-09-03 16:02:00,
2013-09-03 12:07:00,86.9,70.9,29.91,North,0,0.0,0.0,59,0.04,,SCT120,0.04,VWS V14.01,2013-09-03 16:07:00,
2013-09-03 12:12:00,86.5,70.0,29.91,North,0,0.0,0.0,58,0.04,,SCT120,0.04,VWS V14.01,2013-09-03 16:12:00,
2013-09-03 12:17:00,86.2,68.7,29.91,North,0,0.0,0.0,56,0.04,,SCT120,0.04,VWS V14.01,2013-09-03 16:17:00,
2013-09-03 12:22:00,84.2,66.3,29.91,North,0,0.0,0.0,55,0.20,,SCT120,0.20,VWS V14.01,2013-09-03 16:22:00,
2013-09-03 12:27:00,82.2,67.4,29.91,North,0,0.0,0.0,61,0.47,,SCT120,0.47,VWS V14.01,2013-09-03 16:27:00,
2013-09-03 12:32:00,81.7,68.8,29.91,North,0,0.0,0.0,65,0.47,,SCT120,0.47,VWS V14.01,2013-09-03 16:32:00,
2013-09-03 12:37:00,81.9,69.8,29.91,North,0,0.0,0.0,67,0.47,,SCT120,0.47,VWS V14.01,2013-09-03 16:37:00,
2013-09-03 12:42:00,83.1,71.0,29.91,North,0,0.0,0.0,67,0.43,,SCT120,0.47,VWS V14.01,2013-09-03 16:42:00,
2013-09-03 12:47:00,84.4,70.9,29.91,North,0,0.0,0.0,64,0.43,,SCT120,0.47,VWS V14.01,2013-09-03 16:47:00,
2013-09-03 12:52:00,85.6,72.1,29.91,North,0,0.0,0.0,64,0.43,,SCT120,0.47,VWS V14.01,2013-09-03 16:52:00,
2013-09-03 12:57:00,86.2,66.5,29.88,North,0,0.0,0.0,52,0.43,,SCT120,0.47,VWS V14.01,2013-09-03 16:57:00,
2013-09-03 13:02:00,87.1,69.0,29.88,North,0,0.0,0.0,55,0.43,,SCT120,0.47,VWS V14.01,2013-09-03 17:02:00,
2013-09-03 13:07:00,86.5,70.5,29.88,North,0,0.0,0.0,59,0.51,,SCT120,0.55,VWS V14.01,2013-09-03 17:07:00,
2013-09-03 13:12:00,85.3,68.8,29.88,North,0,0.0,0.0,58,0.51,,SCT120,0.55,VWS V14.01,2013-09-03 17:12:00,
2013-09-03 13:17:00,85.5,70.5,29.88,North,0,0.0,0.0,61,0.51,,SCT120,0.55,VWS V14.01,2013-09-03 17:17:00,
2013-09-03 13:22:00,85.3,70.8,29.88,North,0,0.0,0.0,62,0.51,,SCT120,0.55,VWS V14.01,2013-09-03 17:22:00,
2013-09-03 13:27:00,85.5,71.0,29.88,North,0,0.0,0.0,62,0.51,,SCT120,0.55,VWS V14.01,2013-09-03 17:27:00,
2013-09-03 13:32:00,85.5,71.4,29.88,North,0,0.0,0.0,63,0.51,,SCT120,0.55,VWS V14.01,2013-09-03 17:32:00,
2013-09-03 13:37:00,85.3,71.3,29.88,North,0,0.0,0.0,63,0.51,,SCT120,0.55,VWS V14.01,2013-09-03 17:37:00,
2013-09-03 13:42:00,85.1,70.6,29.88,North,0,0.0,0.0,62,0.08,,SCT120,0.55,VWS V14.01,2013-09-03 17:42:00,
2013-09-03 13:47:00,85.1,71.1,29.88,North,0,0.0,0.0,63,0.08,,SCT120,0.55,VWS V14.01,2013-09-03 17:47:00,
2013-09-03 13:52:00,84.9,71.4,29.88,North,0,0.0,0.0,64,0.08,,SCT120,0.55,VWS V14.01,2013-09-03 17:52:00,
2013-09-03 13:57:00,84.7,71.2,29.88,North,0,0.0,0.0,64,0.08,,SCT120,0.55,VWS V14.01,2013-09-03 17:57:00,
2013-09-03 14:02:00,84.6,71.5,29.88,North,0,0.0,0.0,65,0.08,,SCT120,0.55,VWS V14.01,2013-09-03 18:02:00,
2013-09-03 14:07:00,84.2,69.3,29.88,North,0,0.0,0.0,61,0.08,,SCT120,0.55,VWS V14.01,2013-09-03 18:07:00,
2013-09-03 14:12:00,84.4,69.9,29.85,North,0,0.0,0.0,62,0.08,,SCT120,0.55,VWS V14.01,2013-09-03 18:12:00,
2013-09-03 14:17:00,84.2,69.3,29.85,North,0,0.0,0.0,61,0.08,,SCT120,0.55,VWS V14.01,2013-09-03 18:17:00,
2013-09-03 14:22:00,84.2,67.8,29.85,North,0,0.0,0.0,58,0.00,,SCT120,0.55,VWS V14.01,2013-09-03 18:22:00,
2013-09-03 14:27:00,84.2,67.3,29.85,North,0,0.0,0.0,57,0.00,,SCT120,0.55,VWS V14.01,2013-09-03 18:27:00,
2013-09-03 14:32:00,84.0,63.4,29.85,North,0,0.0,0.0,50,0.00,,SCT120,0.55,VWS V14.01,2013-09-03 18:32:00,
2013-09-03 14:37:00,84.6,64.5,29.85,North,0,0.0,0.0,51,0.00,,SCT120,0.55,VWS V14.01,2013-09-03 18:37:00,
2013-09-03 14:42:00,85.6,65.4,29.85,North,0,0.0,0.0,51,0.00,,SCT120,0.55,VWS V14.01,2013-09-03 18:42:00,
2013-09-03 14:47:00,86.7,63.5,29.85,North,0,0.0,0.0,46,0.00,,SCT120,0.55,VWS V14.01,2013-09-03 18:47:00,
2013-09-03 14:52:00,87.1,62.5,29.85,North,0,0.0,0.0,44,0.00,,SCT120,0.55,VWS V14.01,2013-09-03 18:52:00,
2013-09-03 14:57:00,88.0,62.7,29.85,North,0,0.0,0.0,43,0.00,,SCT120,0.55,VWS V14.01,2013-09-03 18:57:00,
2013-09-03 15:02:00,88.0,62.0,29.85,North,0,0.0,0.0,42,0.00,,SCT120,0.55,VWS V14.01,2013-09-03 19:02:00,
2013-09-03 15:07:00,88.5,63.2,29.85,North,0,0.0,0.0,43,0.00,,SCT120,0.55,VWS V14.01,2013-09-03 19:07:00,
2013-09-03 15:12:00,88.2,60.8,29.85,North,0,0.0,0.0,40,0.00,,SCT120,0.55,VWS V14.01,2013-09-03 19:12:00,
2013-09-03 15:17:00,88.2,60.8,29.85,North,0,0.0,0.0,40,0.00,,SCT120,0.55,VWS V14.01,2013-09-03 19:17:00,
2013-09-03 15:22:00,89.1,60.9,29.85,North,0,0.0,0.0,39,0.00,,SCT120,0.55,VWS V14.01,2013-09-03 19:22:00,
2013-09-03 15:27:00,89.2,58.8,29.85,North,0,0.0,0.0,36,0.00,,SCT120,0.55,VWS V14.01,2013-09-03 19:27:00,
2013-09-03 15:32:00,88.9,56.9,29.85,North,0,0.0,0.0,34,0.00,,SCT120,0.55,VWS V14.01,2013-09-03 19:32:00,
2013-09-03 15:37:00,88.0,56.1,29.85,North,0,0.0,0.0,34,0.00,,SCT120,0.55,VWS V14.01,2013-09-03 19:37:00,
2013-09-03 15:42:00,88.2,57.1,29.85,North,0,0.0,0.0,35,0.00,,SCT120,0.55,VWS V14.01,2013-09-03 19:42:00,
2013-09-03 15:47:00,88.0,56.9,29.85,North,0,0.0,0.0,35,0.00,,SCT120,0.55,VWS V14.01,2013-09-03 19:47:00,
2013-09-03 15:52:00,87.3,55.5,29.85,North,0,0.0,0.0,34,0.00,,SCT120,0.55,VWS V14.01,2013-09-03 19:52:00,
2013-09-03 15:57:00,87.1,56.1,29.85,North,0,0.0,0.0,35,0.00,,SCT120,0.55,VWS V14.01,2013-09-03 19:57:00,
2013-09-03 16:02:00,87.4,56.5,29.85,North,0,0.0,0.0,35,0.00,,SCT120,0.55,VWS V14.01,2013-09-03 20:02:00,
2013-09-03 16:07:00,87.3,56.3,29.85,North,0,0.0,0.0,35,0.00,,SCT120,0.55,VWS V14.01,2013-09-03 20:07:00,
2013-09-03 16:12:00,87.1,56.9,29.85,North,0,0.0,0.0,36,0.00,,SCT120,0.55,VWS V14.01,2013-09-03 20:12:00,
2013-09-03 16:17:00,87.1,56.9,29.85,North,0,0.0,0.0,36,0.00,,SCT120,0.55,VWS V14.01,2013-09-03 20:17:00,
2013-09-03 16:22:00,86.5,56.4,29.85,North,0,0.0,0.0,36,0.00,,SCT120,0.55,VWS V14.01,2013-09-03 20:22:00,
2013-09-03 16:27:00,86.4,56.3,29.85,North,0,0.0,0.0,36,0.00,,SCT120,0.55,VWS V14.01,2013-09-03 20:27:00,
2013-09-03 16:32:00,86.5,56.4,29.85,North,0,0.0,0.0,36,0.00,,SCT120,0.55,VWS V14.01,2013-09-03 20:32:00,
2013-09-03 16:37:00,86.9,57.5,29.85,North,0,0.0,0.0,37,0.00,,SCT120,0.55,VWS V14.01,2013-09-03 20:37:00,
2013-09-03 16:42:00,86.5,57.9,29.85,North,0,0.0,0.0,38,0.00,,SCT120,0.55,VWS V14.01,2013-09-03 20:42:00,
2013-09-03 16:47:00,85.8,57.3,29.85,North,0,0.0,0.0,38,0.00,,SCT120,0.55,VWS V14.01,2013-09-03 20:47:00,
2013-09-03 16:52:00,85.8,56.6,29.85,North,0,0.0,0.0,37,0.00,,SCT120,0.55,VWS V14.01,2013-09-03 20:52:00,
2013-09-03 16:57:00,85.8,56.6,29.85,North,0,0.0,0.0,37,0.00,,SCT120,0.55,VWS V14.01,2013-09-03 20:57:00,
2013-09-03 17:02:00,85.6,57.9,29.85,North,0,0.0,0.0,39,0.00,,SCT120,0.55,VWS V14.01,2013-09-03 21:02:00,
2013-09-03 17:07:00,84.6,57.6,29.85,North,0,0.0,0.0,40,0.00,,SCT120,0.55,VWS V14.01,2013-09-03 21:07:00,
2013-09-03 17:12:00,84.0,59.8,29.85,North,0,0.0,0.0,44,0.00,,SCT120,0.55,VWS V14.01,2013-09-03 21:12:00,
2013-09-03 17:17:00,83.5,61.8,29.85,North,0,0.0,0.0,48,0.00,,SCT120,0.55,VWS V14.01,2013-09-03 21:17:00,
2013-09-03 17:22:00,83.5,62.3,29.85,North,0,0.0,0.0,49,0.00,,SCT120,0.55,VWS V14.01,2013-09-03 21:22:00,
2013-09-03 17:27:00,83.3,63.3,29.88,North,0,0.0,0.0,51,0.00,,SCT120,0.55,VWS V14.01,2013-09-03 21:27:00,
2013-09-03 17:32:00,83.3,65.5,29.88,North,0,0.0,0.0,55,0.00,,SCT120,0.55,VWS V14.01,2013-09-03 21:32:00,
2013-09-03 17:37:00,83.3,66.0,29.88,North,0,0.0,0.0,56,0.00,,SCT120,0.55,VWS V14.01,2013-09-03 21:37:00,
2013-09-03 17:42:00,83.3,67.0,29.88,North,0,0.0,0.0,58,0.00,,SCT120,0.55,VWS V14.01,2013-09-03 21:42:00,
2013-09-03 17:47:00,83.1,66.8,29.88,North,0,0.0,0.0,58,0.00,,SCT120,0.55,VWS V14.01,2013-09-03 21:47:00,
2013-09-03 17:52:00,83.1,66.8,29.88,North,0,0.0,0.0,58,0.00,,SCT120,0.55,VWS V14.01,2013-09-03 21:52:00,
2013-09-03 17:57:00,83.1,66.8,29.88,North,0,0.0,0.0,58,0.00,,SCT120,0.55,VWS V14.01,2013-09-03 21:57:00,
2013-09-03 18:02:00,82.9,66.7,29.88,North,0,0.0,0.0,58,0.00,,SCT120,0.55,VWS V14.01,2013-09-03 22:02:00,
2013-09-03 18:07:00,82.9,66.7,29.88,North,0,0.0,0.0,58,0.00,,SCT120,0.55,VWS V14.01,2013-09-03 22:07:00,
2013-09-03 18:12:00,82.9,66.7,29.88,North,0,0.0,0.0,58,0.00,,SCT120,0.55,VWS V14.01,2013-09-03 22:12:00,
2013-09-03 18:17:00,82.8,66.5,29.88,North,0,0.0,0.0,58,0.00,,SCT120,0.55,VWS V14.01,2013-09-03 22:17:00,
2013-09-03 18:23:00,82.6,66.8,29.88,North,0,0.0,0.0,59,0.00,,SCT120,0.55,VWS V14.01,2013-09-03 22:23:00,
2013-09-03 18:28:00,82.2,67.0,29.88,North,0,0.0,0.0,60,0.00,,SCT120,0.55,VWS V14.01,2013-09-03 22:28:00,
2013-09-03 18:33:00,82.2,67.9,29.88,North,0,0.0,0.0,62,0.00,,SCT120,0.55,VWS V14.01,2013-09-03 22:33:00,
2013-09-03 18:38:00,82.2,67.9,29.88,North,0,0.0,0.0,62,0.00,,SCT120,0.55,VWS V14.01,2013-09-03 22:38:00,
2013-09-03 18:43:00,82.2,68.4,29.88,North,0,0.0,0.0,63,0.00,,SCT120,0.55,VWS V14.01,2013-09-03 22:43:00,
2013-09-03 18:48:00,82.2,68.4,29.88,North,0,0.0,0.0,63,0.00,,SCT120,0.55,VWS V14.01,2013-09-03 22:48:00,
2013-09-03 18:53:00,82.0,68.2,29.88,North,0,0.0,0.0,63,0.00,,SCT120,0.55,VWS V14.01,2013-09-03 22:53:00,
2013-09-03 18:58:00,82.0,68.2,29.88,North,0,0.0,0.0,63,0.00,,SCT120,0.55,VWS V14.01,2013-09-03 22:58:00,
2013-09-03 19:03:00,82.0,68.2,29.88,North,0,0.0,0.0,63,0.00,,SCT120,0.55,VWS V14.01,2013-09-03 23:03:00,
2013-09-03 19:08:00,81.5,67.7,29.88,North,0,0.0,0.0,63,0.00,,SCT120,0.55,VWS V14.01,2013-09-03 23:08:00,
2013-09-03 19:13:00,79.9,66.2,29.88,North,0,0.0,0.0,63,0.08,,SCT120,0.63,VWS V14.01,2013-09-03 23:13:00,
2013-09-03 19:18:00,79.7,66.5,29.88,North,0,0.0,0.0,64,0.08,,SCT120,0.63,VWS V14.01,2013-09-03 23:18:00,
2013-09-03 19:23:00,79.3,65.7,29.88,North,0,0.0,0.0,63,0.08,,SCT120,0.63,VWS V14.01,2013-09-03 23:23:00,
2013-09-03 19:28:00,79.3,66.6,29.88,North,0,0.0,0.0,65,0.08,,SCT120,0.63,VWS V14.01,2013-09-03 23:28:00,
2013-09-03 19:33:00,79.3,67.4,29.88,North,0,0.0,0.0,67,0.08,,SCT120,0.63,VWS V14.01,2013-09-03 23:33:00,
2013-09-03 19:38:00,79.3,67.4,29.88,North,0,0.0,0.0,67,0.08,,SCT120,0.63,VWS V14.01,2013-09-03 23:38:00,
2013-09-03 19:43:00,79.0,66.7,29.91,North,0,0.0,0.0,66,0.08,,SCT120,0.63,VWS V14.01,2013-09-03 23:43:00,
2013-09-03 19:48:00,78.6,65.9,29.91,North,0,0.0,0.0,65,0.08,,SCT120,0.63,VWS V14.01,2013-09-03 23:48:00,
2013-09-03 19:53:00,78.6,66.3,29.91,North,0,0.0,0.0,66,0.08,,SCT120,0.63,VWS V14.01,2013-09-03 23:53:00,
2013-09-03 19:58:00,79.0,67.1,29.88,North,0,0.0,0.0,67,0.08,,SCT120,0.63,VWS V14.01,2013-09-03 23:58:00,
2013-09-03 20:03:00,79.0,67.5,29.88,North,0,0.0,0.0,68,0.08,,SCT120,0.63,VWS V14.01,2013-09-04 00:03:00,
2013-09-03 20:08:00,79.2,68.1,29.88,North,0,0.0,0.0,69,0.08,,SCT120,0.63,VWS V14.01,2013-09-04 00:08:00,
2013-09-03 20:13:00,79.0,67.9,29.88,North,0,0.0,0.0,69,0.08,,SCT120,0.63,VWS V14.01,2013-09-04 00:13:00,
2013-09-03 20:18:00,79.0,67.9,29.88,North,0,0.0,0.0,69,0.08,,SCT120,0.63,VWS V14.01,2013-09-04 00:18:00,
2013-09-03 20:23:00,78.6,67.6,29.88,North,0,0.0,0.0,69,0.00,,SCT120,0.63,VWS V14.01,2013-09-04 00:23:00,
2013-09-03 20:28:00,78.4,67.4,29.88,North,0,0.0,0.0,69,0.04,,SCT120,0.67,VWS V14.01,2013-09-04 00:28:00,
2013-09-03 20:33:00,78.4,67.8,29.88,North,0,0.0,0.0,70,0.04,,SCT120,0.67,VWS V14.01,2013-09-04 00:33:00,
2013-09-03 20:38:00,78.3,67.7,29.88,North,0,0.0,0.0,70,0.04,,SCT120,0.67,VWS V14.01,2013-09-04 00:38:00,
2013-09-03 20:43:00,78.3,68.1,29.91,North,0,0.0,0.0,71,0.04,,SCT120,0.67,VWS V14.01,2013-09-04 00:43:00,
2013-09-03 20:48:00,78.4,68.3,29.91,North,0,0.0,0.0,71,0.04,,SCT120,0.67,VWS V14.01,2013-09-04 00:48:00,
2013-09-03 20:53:00,78.6,68.8,29.91,North,0,0.0,0.0,72,0.04,,SCT120,0.67,VWS V14.01,2013-09-04 00:53:00,
2013-09-03 20:58:00,78.8,69.0,29.91,North,0,0.0,0.0,72,0.04,,SCT120,0.67,VWS V14.01,2013-09-04 00:58:00,
2013-09-03 21:03:00,79.0,69.2,29.91,North,0,0.0,0.0,72,0.04,,SCT120,0.67,VWS V14.01,2013-09-04 01:03:00,
2013-09-03 21:08:00,78.8,69.0,29.91,North,0,0.0,0.0,72,0.04,,SCT120,0.67,VWS V14.01,2013-09-04 01:08:00,
2013-09-03 21:13:00,78.4,68.7,29.91,North,0,0.0,0.0,72,0.04,,SCT120,0.67,VWS V14.01,2013-09-04 01:13:00,
2013-09-03 21:18:00,78.3,68.9,29.91,North,0,0.0,0.0,73,0.04,,SCT120,0.67,VWS V14.01,2013-09-04 01:18:00,
2013-09-03 21:23:00,78.3,69.3,29.91,North,0,0.0,0.0,74,0.04,,SCT120,0.67,VWS V14.01,2013-09-04 01:23:00,
2013-09-03 21:28:00,78.4,69.9,29.91,North,0,0.0,0.0,75,0.04,,SCT120,0.67,VWS V14.01,2013-09-04 01:28:00,
2013-09-03 21:33:00,78.3,69.7,29.91,North,0,0.0,0.0,75,0.04,,SCT120,0.67,VWS V14.01,2013-09-04 01:33:00,
2013-09-03 21:38:00,78.4,69.9,29.91,North,0,0.0,0.0,75,0.04,,SCT120,0.67,VWS V14.01,2013-09-04 01:38:00,
2013-09-03 21:43:00,78.6,70.0,29.91,North,0,0.0,0.0,75,0.00,,SCT120,0.67,VWS V14.01,2013-09-04 01:43:00,
2013-09-03 21:48:00,78.8,70.2,29.91,North,0,0.0,0.0,75,0.00,,SCT120,0.67,VWS V14.01,2013-09-04 01:48:00,
2013-09-03 21:53:00,79.0,70.4,29.91,North,0,0.0,0.0,75,0.00,,SCT120,0.67,VWS V14.01,2013-09-04 01:53:00,
2013-09-03 21:58:00,78.8,70.2,29.94,North,0,0.0,0.0,75,0.00,,SCT120,0.67,VWS V14.01,2013-09-04 01:58:00,
2013-09-03 22:03:00,78.4,70.2,29.94,North,0,0.0,0.0,76,0.00,,SCT120,0.67,VWS V14.01,2013-09-04 02:03:00,
2013-09-03 22:08:00,78.4,70.2,29.94,North,0,0.0,0.0,76,0.00,,SCT120,0.67,VWS V14.01,2013-09-04 02:08:00,
2013-09-03 22:13:00,78.4,70.6,29.94,North,0,0.0,0.0,77,0.04,,SCT120,0.71,VWS V14.01,2013-09-04 02:13:00,
2013-09-03 22:18:00,78.4,70.6,29.94,North,0,0.0,0.0,77,0.04,,SCT120,0.71,VWS V14.01,2013-09-04 02:18:00,
2013-09-03 22:23:00,78.4,71.0,29.94,North,0,0.0,0.0,78,0.08,,SCT120,0.75,VWS V14.01,2013-09-04 02:23:00,
2013-09-03 22:28:00,78.6,71.2,29.94,North,0,0.0,0.0,78,0.08,,SCT120,0.75,VWS V14.01,2013-09-04 02:28:00,
2013-09-03 22:33:00,78.4,71.0,29.94,North,0,0.0,0.0,78,0.08,,SCT120,0.75,VWS V14.01,2013-09-04 02:33:00,
2013-09-03 22:38:00,78.6,71.6,29.94,North,0,0.0,0.0,79,0.08,,SCT120,0.75,VWS V14.01,2013-09-04 02:38:00,
2013-09-03 22:43:00,78.6,71.6,29.94,North,0,0.0,0.0,79,0.12,,SCT120,0.79,VWS V14.01,2013-09-04 02:43:00,
2013-09-03 22:48:00,78.4,71.4,29.94,North,0,0.0,0.0,79,0.12,,SCT120,0.79,VWS V14.01,2013-09-04 02:48:00,
2013-09-03 22:53:00,78.3,71.6,29.94,North,0,0.0,0.0,80,0.12,,SCT120,0.79,VWS V14.01,2013-09-04 02:53:00,
2013-09-03 22:58:00,78.3,71.6,29.94,North,0,0.0,0.0,80,0.12,,SCT120,0.79,VWS V14.01,2013-09-04 02:58:00,
2013-09-03 23:03:00,78.3,71.6,29.94,North,0,0.0,0.0,80,0.12,,SCT120,0.79,VWS V14.01,2013-09-04 03:03:00,
2013-09-03 23:08:00,78.4,71.8,29.94,North,0,0.0,0.0,80,0.12,,SCT120,0.79,VWS V14.01,2013-09-04 03:08:00,
2013-09-03 23:13:00,78.3,71.6,29.94,North,0,0.0,0.0,80,0.12,,SCT120,0.79,VWS V14.01,2013-09-04 03:13:00,
2013-09-03 23:18:00,78.3,71.6,29.94,North,0,0.0,0.0,80,0.12,,SCT120,0.79,VWS V14.01,2013-09-04 03:18:00,
2013-09-03 23:23:00,78.3,71.6,29.94,North,0,0.0,0.0,80,0.04,,SCT120,0.79,VWS V14.01,2013-09-04 03:23:00,
2013-09-03 23:28:00,78.1,71.4,29.91,North,0,0.0,0.0,80,0.04,,SCT120,0.79,VWS V14.01,2013-09-04 03:28:00,
2013-09-03 23:33:00,78.1,71.4,29.91,North,0,0.0,0.0,80,0.04,,SCT120,0.79,VWS V14.01,2013-09-04 03:33:00,
2013-09-03 23:38:00,77.9,71.6,29.91,North,0,0.0,0.0,81,0.04,,SCT120,0.79,VWS V14.01,2013-09-04 03:38:00,
2013-09-03 23:43:00,77.9,71.6,29.91,North,0,0.0,0.0,81,0.00,,SCT120,0.79,VWS V14.01,2013-09-04 03:43:00,
2013-09-03 23:48:00,77.7,71.4,29.91,North,0,0.0,0.0,81,0.00,,SCT120,0.79,VWS V14.01,2013-09-04 03:48:00,
2013-09-03 23:53:00,77.5,71.6,29.91,North,0,0.0,0.0,82,0.00,,SCT120,0.79,VWS V14.01,2013-09-04 03:53:00,
2013-09-03 23:58:00,77.4,71.4,29.91,North,0,0.0,0.0,82,0.00,,SCT120,0.79,VWS V14.01,2013-09-04 03:58:00,